星链-36300(STARLINK-36300)

导读

STARLINK-36300(NORAD编号68303)是美国SpaceX公司星链(Starlink)星座的一颗低轨卫星,隶属于全球规模最大的低轨卫星互联网项目。星链计划总计计划发射约4.2万颗卫星,旨在为全球提供高速低延迟的互联网服务,尤其覆盖偏远地区、海洋、航空等传统网络难以到达的区域。该卫星运行在近地轨道,属于Starlink批量部署的卫星之一,承担星座组网、提供天基互联网接入的功能,目前处于在轨运行状态。作为星链星座的组成部分,它助力SpaceX实现全球覆盖目标,同时也延续了星链项目在民用通信领域的定位,也具备潜在的军事应用潜力。星链大规模部署也引发了天文界对太空拥堵和观测干扰的担忧。

基本信息
目录编号:
68303
目录名称:
STARLINK-36300
国际标识:
2026-057K
轨道中心:
EARTH
卫星名称:
星链-36300
卫星全名:
星链-36300(STARLINK-36300)
卫星状态:
在轨 (已飞行177 天)
发射日期:
2026-03-20 UTC
国别 :
美国 (US)
星等 :
--
该卫星已列入 空间交会检测服务 Space Conjunction Data Service (SCDS) ,当前飞行风险评估等级: 无高风险
轨道信息
数据来源 国际轨道数据
星历时间: 2026-09-13T04:46:57+0800
13小时前
查看轨道信息
半长轴: 6843.66km
偏心率: 0.0000251
轨道倾角: 97.288°
近地点辐角 166.554°
升交点赤经 21.374°
平近点角 193.571°
近地点: 465.351km
远地点: 465.695km
周期: 93.906分钟
每日圈数: 15.334519
详细信息
固有亮度:
5
最大亮度:
2.5
卫星平台:
Starlink V1.0
覆盖范围:
全球
运营商:
太空探索技术公司
运营商所在国:
美国
制造商(研发单位):
太空探索技术公司
制造商所在国:
美国
使用方式:
暂无
卫星简介
Starlink 计划是 SpaceX 推出的全球卫星互联网项目,通过发射低轨道卫星,为全球尤其是偏远地区提供高速、低延迟的互联网服务。自 2019 年起,Starlink 已部署数千颗卫星,旨在缩小全球数字鸿沟,推动互联网普及。该项目还为军事、航空等行业提供通信支持,带来广泛经济效益。
2D轨道图
3D轨道图
轨道高度分析图
轨道倾角分析图
轨道综合分析图
查看轨道综合分析图
交会数据列表
事件ID 空间交会对象 最接近时刻(TCA) 交会距离 交会风险概率(CRP) 交会风险指数(CRI) 操作
CDM_260915-065504-765606-830321
2026-09-15T
06:55:45+0000
2.476 km
极远距离
1.720494E-6 低风险 0.4
CDM_260909-112205-173806-830321
2026-09-09T
11:22:19+0000
2.564 km
极远距离
1.67608E-6 低风险 0.39
CDM_260915-212206-036506-830321
2026-09-15T
21:22:42+0000
2.967 km
极远距离
1.267935E-6 低风险 0.37
CDM_260913-171904-603906-830321
2026-09-13T
17:19:40+0000
2.600 km
极远距离
1.155533E-6 低风险 0.36
与全量物体交会距离演化趋势
与全量物体交会风险概率演化趋势